Location: Bonn
(50.7330°N, 7.1000°E)
Time: 13:30:50
(UTC+02:00)

Iridium 67 - Visible Passes

Search period start: 29 May 2016 00:00
Search period end: 08 June 2016 00:00
Orbit: 776 x 779 km, 86.4° (Epoch: 28 May)

Date Brightness Start Highest point End Pass type
(mag) Time Alt. Az. Time Alt. Az. Time Alt. Az.
29 May 7.4 23:20:31 10° NNW 23:24:53 27° W 23:29:13 10° SW visible
30 May 6.6 22:46:36 10° NNW 22:51:34 45° W 22:56:30 10° SSW visible
31 May 5.8 22:12:53 10° N 22:18:08 76° W 22:23:20 10° S visible
31 May 8.2 23:55:53 10° NW 23:57:55 12° WNW 23:59:57 10° W visible
01 Jun 7.9 23:21:02 10° NNW 23:24:48 20° WNW 23:28:33 10° WSW visible
02 Jun 7.2 22:46:55 10° NNW 22:51:33 33° W 22:56:10 10° SW visible
03 Jun 6.3 22:13:05 10° NNW 22:18:11 55° W 22:23:16 10° SSW visible
04 Jun 8.2 23:21:47 10° NW 23:24:40 15° WNW 23:27:34 10° WSW visible
05 Jun 7.7 22:47:20 10° NNW 22:51:30 25° W 22:55:39 10° SW visible
07 Jun 8.5 23:23:11 10° NW 23:24:30 11° WNW 23:25:48 10° W visible
